Time,TemperatureF,DewpointF,PressureIn,WindDirection,WindDirectionDegrees,WindSpeedMPH,WindSpeedGustMPH,Humidity,HourlyPrecipIn,Conditions,Clouds,dailyrainin,SoftwareType,DateUTC
2013-02-11 00:11:00,11.7,9.0,29.52,NE,45,0.0,-999.0,87,-99.99,,,0.00,weatherlink.com 1.10,2013-02-11 09:11:00,
2013-02-11 00:26:00,11.8,9.0,29.52,NE,45,0.0,-999.0,87,-99.99,,,0.00,weatherlink.com 1.10,2013-02-11 09:26:00,
2013-02-11 00:41:00,11.9,9.0,29.52,NE,45,0.0,-999.0,87,-99.99,,,0.00,weatherlink.com 1.10,2013-02-11 09:41:00,
2013-02-11 00:56:00,12.2,9.0,29.53,NE,45,0.0,-999.0,88,-99.99,,,0.00,weatherlink.com 1.10,2013-02-11 09:56:00,
2013-02-11 01:11:00,12.5,10.0,29.54,NE,45,0.0,-999.0,88,-99.99,,,0.00,weatherlink.com 1.10,2013-02-11 10:11:00,
2013-02-11 01:26:00,12.9,10.0,29.54,NE,45,0.0,-999.0,88,-99.99,,,0.00,weatherlink.com 1.10,2013-02-11 10:26:00,
2013-02-11 01:41:00,13.2,10.0,29.54,NE,45,0.0,-999.0,87,-99.99,,,0.00,weatherlink.com 1.10,2013-02-11 10:41:00,
2013-02-11 01:56:00,13.5,10.0,29.54,NE,45,0.0,-999.0,87,-99.99,,,0.00,weatherlink.com 1.10,2013-02-11 10:56:00,
2013-02-11 02:10:00,13.7,11.0,29.54,NE,45,0.0,-999.0,87,-99.99,,,0.00,weatherlink.com 1.10,2013-02-11 11:10:00,
2013-02-11 02:25:00,13.9,11.0,29.54,NE,45,0.0,-999.0,87,-99.99,,,0.00,weatherlink.com 1.10,2013-02-11 11:25:00,
2013-02-11 02:40:00,14.2,11.0,29.55,NE,45,0.0,-999.0,87,-99.99,,,0.00,weatherlink.com 1.10,2013-02-11 11:40:00,
2013-02-11 02:55:00,14.4,11.0,29.55,NE,45,0.0,-999.0,87,-99.99,,,0.00,weatherlink.com 1.10,2013-02-11 11:55:00,
2013-02-11 03:10:00,14.5,12.0,29.55,NE,45,0.0,-999.0,88,-99.99,,,0.00,weatherlink.com 1.10,2013-02-11 12:10:00,
2013-02-11 03:25:00,14.7,12.0,29.55,NE,45,0.0,-999.0,88,-99.99,,,0.00,weatherlink.com 1.10,2013-02-11 12:25:00,
2013-02-11 03:40:00,14.9,12.0,29.56,NE,45,0.0,-999.0,89,-99.99,,,0.00,weatherlink.com 1.10,2013-02-11 12:40:00,
2013-02-11 03:55:00,15.0,12.0,29.56,NE,45,0.0,-999.0,89,-99.99,,,0.00,weatherlink.com 1.10,2013-02-11 12:55:00,
2013-02-11 04:10:00,15.2,13.0,29.57,NE,45,0.0,-999.0,89,-99.99,,,0.00,weatherlink.com 1.10,2013-02-11 13:10:00,
2013-02-11 04:25:00,15.4,13.0,29.57,NE,45,0.0,-999.0,89,-99.99,,,0.00,weatherlink.com 1.10,2013-02-11 13:25:00,
2013-02-11 04:40:00,15.6,13.0,29.57,NE,45,0.0,-999.0,89,-99.99,,,0.00,weatherlink.com 1.10,2013-02-11 13:40:00,
2013-02-11 04:55:00,15.8,13.0,29.57,NE,45,0.0,-999.0,90,-99.99,,,0.00,weatherlink.com 1.10,2013-02-11 13:55:00,
2013-02-11 05:11:00,16.1,14.0,29.57,NE,45,0.0,-999.0,90,-99.99,,,0.00,weatherlink.com 1.10,2013-02-11 14:11:00,
2013-02-11 05:26:00,16.3,14.0,29.58,NE,45,0.0,-999.0,90,-99.99,,,0.00,weatherlink.com 1.10,2013-02-11 14:26:00,
2013-02-11 05:41:00,16.4,14.0,29.59,NNE,21,0.0,-999.0,90,-99.99,,,0.00,weatherlink.com 1.10,2013-02-11 14:41:00,
2013-02-11 05:56:00,16.5,14.0,29.59,NNE,21,0.0,-999.0,90,-99.99,,,0.00,weatherlink.com 1.10,2013-02-11 14:56:00,
2013-02-11 06:11:00,16.6,14.0,29.59,NNE,21,0.0,-999.0,90,-99.99,,,0.00,weatherlink.com 1.10,2013-02-11 15:11:00,
2013-02-11 06:26:00,16.6,14.0,29.59,NNE,21,0.0,-999.0,90,-99.99,,,0.00,weatherlink.com 1.10,2013-02-11 15:26:00,
2013-02-11 06:41:00,16.6,14.0,29.60,NNE,21,0.0,-999.0,90,-99.99,,,0.00,weatherlink.com 1.10,2013-02-11 15:41:00,
2013-02-11 06:56:00,16.7,14.0,29.60,NNE,21,1.0,-999.0,90,-99.99,,,0.00,weatherlink.com 1.10,2013-02-11 15:56:00,
2013-02-11 07:11:00,17.1,15.0,29.61,NNE,21,0.0,-999.0,91,-99.99,,,0.00,weatherlink.com 1.10,2013-02-11 16:11:00,
2013-02-11 07:26:00,17.3,15.0,29.61,NNE,21,0.0,-999.0,91,-99.99,,,0.00,weatherlink.com 1.10,2013-02-11 16:26:00,
2013-02-11 07:41:00,17.6,16.0,29.62,NNE,21,0.0,-999.0,91,-99.99,,,0.00,weatherlink.com 1.10,2013-02-11 16:41:00,
2013-02-11 07:56:00,17.8,16.0,29.62,NNW,342,0.0,-999.0,91,-99.99,,,0.00,weatherlink.com 1.10,2013-02-11 16:56:00,
2013-02-11 08:10:00,17.9,16.0,29.62,NNW,342,0.0,-999.0,91,-99.99,,,0.00,weatherlink.com 1.10,2013-02-11 17:10:00,
2013-02-11 08:25:00,17.7,15.0,29.63,NNW,342,0.0,-999.0,90,-99.99,,,0.00,weatherlink.com 1.10,2013-02-11 17:25:00,
2013-02-11 08:40:00,17.6,15.0,29.63,NNW,342,0.0,-999.0,90,-99.99,,,0.00,weatherlink.com 1.10,2013-02-11 17:40:00,
2013-02-11 08:55:00,17.5,15.0,29.64,NNW,342,0.0,-999.0,91,-99.99,,,0.00,weatherlink.com 1.10,2013-02-11 17:55:00,
2013-02-11 09:11:00,17.3,15.0,29.64,NNW,342,0.0,-999.0,90,-99.99,,,0.00,weatherlink.com 1.10,2013-02-11 18:11:00,
2013-02-11 09:26:00,17.3,15.0,29.64,NNW,342,0.0,-999.0,90,-99.99,,,0.00,weatherlink.com 1.10,2013-02-11 18:26:00,
2013-02-11 09:41:00,17.3,15.0,29.64,NNW,342,0.0,-999.0,90,-99.99,,,0.00,weatherlink.com 1.10,2013-02-11 18:41:00,
2013-02-11 09:56:00,17.3,15.0,29.65,NNW,342,0.0,-999.0,90,-99.99,,,0.00,weatherlink.com 1.10,2013-02-11 18:56:00,
2013-02-11 10:11:00,17.4,15.0,29.65,NNW,342,0.0,-999.0,90,-99.99,,,0.00,weatherlink.com 1.10,2013-02-11 19:11:00,
2013-02-11 10:26:00,17.6,16.0,29.66,NNW,341,0.0,-999.0,91,-99.99,,,0.00,weatherlink.com 1.10,2013-02-11 19:26:00,
2013-02-11 10:41:00,18.0,16.0,29.66,NNW,342,0.0,-999.0,90,-99.99,,,0.00,weatherlink.com 1.10,2013-02-11 19:41:00,
2013-02-11 10:56:00,18.5,16.0,29.67,NNW,342,0.0,-999.0,90,-99.99,,,0.00,weatherlink.com 1.10,2013-02-11 19:56:00,
2013-02-11 11:11:00,18.6,16.0,29.67,NNW,342,0.0,-999.0,89,-99.99,,,0.00,weatherlink.com 1.10,2013-02-11 20:11:00,
2013-02-11 11:26:00,18.8,16.0,29.68,NNW,342,0.0,-999.0,89,-99.99,,,0.00,weatherlink.com 1.10,2013-02-11 20:26:00,
2013-02-11 11:41:00,18.9,16.0,29.68,NNW,342,0.0,-999.0,89,-99.99,,,0.00,weatherlink.com 1.10,2013-02-11 20:41:00,
2013-02-11 11:56:00,19.1,16.0,29.69,NNW,342,0.0,-999.0,88,-99.99,,,0.00,weatherlink.com 1.10,2013-02-11 20:56:00,
2013-02-11 12:10:00,19.3,16.0,29.69,NNW,342,0.0,-999.0,88,-99.99,,,0.00,weatherlink.com 1.10,2013-02-11 21:10:00,
2013-02-11 12:25:00,19.7,17.0,29.69,NNW,342,0.0,-999.0,88,-99.99,,,0.00,weatherlink.com 1.10,2013-02-11 21:25:00,
2013-02-11 12:40:00,19.7,17.0,29.69,NNW,342,0.0,-999.0,87,-99.99,,,0.00,weatherlink.com 1.10,2013-02-11 21:40:00,
2013-02-11 12:55:00,20.2,17.0,29.69,NNW,342,0.0,-999.0,87,-99.99,,,0.00,weatherlink.com 1.10,2013-02-11 21:55:00,
2013-02-11 13:10:00,20.5,17.0,29.70,NNW,342,0.0,-999.0,86,-99.99,,,0.00,weatherlink.com 1.10,2013-02-11 22:10:00,
2013-02-11 13:25:00,20.4,17.0,29.70,NNW,342,0.0,-999.0,86,-99.99,,,0.00,weatherlink.com 1.10,2013-02-11 22:25:00,
2013-02-11 13:40:00,20.6,17.0,29.70,NNW,342,0.0,-999.0,86,-99.99,,,0.00,weatherlink.com 1.10,2013-02-11 22:40:00,
2013-02-11 13:55:00,20.4,17.0,29.70,NNW,342,0.0,-999.0,86,-99.99,,,0.00,weatherlink.com 1.10,2013-02-11 22:55:00,
2013-02-11 14:10:00,20.3,17.0,29.70,NNW,342,0.0,-999.0,86,-99.99,,,0.00,weatherlink.com 1.10,2013-02-11 23:10:00,
2013-02-11 14:25:00,19.8,16.0,29.70,NNW,342,0.0,-999.0,86,-99.99,,,0.00,weatherlink.com 1.10,2013-02-11 23:25:00,
2013-02-11 14:40:00,19.5,16.0,29.71,NNW,342,0.0,-999.0,86,-99.99,,,0.00,weatherlink.com 1.10,2013-02-11 23:40:00,
2013-02-11 14:55:00,19.2,16.0,29.71,NNW,342,0.0,-999.0,86,-99.99,,,0.00,weatherlink.com 1.10,2013-02-11 23:55:00,
2013-02-11 15:10:00,19.0,15.0,29.71,NNW,342,0.0,-999.0,85,-99.99,,,0.00,weatherlink.com 1.10,2013-02-12 00:10:00,
2013-02-11 15:25:00,18.7,15.0,29.71,NNW,342,0.0,-999.0,86,-99.99,,,0.00,weatherlink.com 1.10,2013-02-12 00:25:00,
2013-02-11 15:40:00,18.1,14.0,29.71,NNW,342,0.0,-999.0,85,-99.99,,,0.00,weatherlink.com 1.10,2013-02-12 00:40:00,
2013-02-11 15:55:00,17.6,14.0,29.71,NE,38,0.0,-999.0,85,-99.99,,,0.00,weatherlink.com 1.10,2013-02-12 00:55:00,
2013-02-11 16:11:00,17.1,13.0,29.71,NE,38,0.0,-999.0,85,-99.99,,,0.00,weatherlink.com 1.10,2013-02-12 01:11:00,
2013-02-11 16:26:00,16.7,13.0,29.71,NE,38,0.0,-999.0,86,-99.99,,,0.00,weatherlink.com 1.10,2013-02-12 01:26:00,
2013-02-11 16:41:00,16.4,13.0,29.71,NE,38,0.0,-999.0,86,-99.99,,,0.00,weatherlink.com 1.10,2013-02-12 01:41:00,
2013-02-11 16:55:00,16.0,13.0,29.71,NE,38,0.0,-999.0,86,-99.99,,,0.00,weatherlink.com 1.10,2013-02-12 01:55:00,
2013-02-11 17:11:00,15.7,13.0,29.72,NE,38,0.0,-999.0,87,-99.99,,,0.00,weatherlink.com 1.10,2013-02-12 02:11:00,
2013-02-11 17:26:00,15.5,12.0,29.72,NE,38,0.0,-999.0,87,-99.99,,,0.00,weatherlink.com 1.10,2013-02-12 02:26:00,
2013-02-11 17:56:00,15.3,12.0,29.72,NE,38,0.0,-999.0,88,-99.99,,,0.00,weatherlink.com 1.10,2013-02-12 02:56:00,
2013-02-11 18:11:00,15.2,12.0,29.72,NE,38,0.0,-999.0,88,-99.99,,,0.00,weatherlink.com 1.10,2013-02-12 03:11:00,
2013-02-11 18:26:00,15.0,12.0,29.72,NE,38,0.0,-999.0,89,-99.99,,,0.00,weatherlink.com 1.10,2013-02-12 03:26:00,
2013-02-11 18:41:00,14.9,12.0,29.73,NE,38,0.0,-999.0,89,-99.99,,,0.00,weatherlink.com 1.10,2013-02-12 03:41:00,
2013-02-11 18:56:00,14.8,12.0,29.73,NE,38,0.0,-999.0,89,-99.99,,,0.00,weatherlink.com 1.10,2013-02-12 03:56:00,
2013-02-11 19:11:00,14.6,12.0,29.73,NE,38,0.0,-999.0,89,-99.99,,,0.00,weatherlink.com 1.10,2013-02-12 04:11:00,
2013-02-11 19:26:00,14.4,12.0,29.73,NE,38,0.0,-999.0,89,-99.99,,,0.00,weatherlink.com 1.10,2013-02-12 04:26:00,
2013-02-11 19:41:00,14.1,12.0,29.73,NE,38,0.0,-999.0,89,-99.99,,,0.00,weatherlink.com 1.10,2013-02-12 04:41:00,
2013-02-11 19:56:00,13.9,11.0,29.73,NE,38,0.0,-999.0,89,-99.99,,,0.00,weatherlink.com 1.10,2013-02-12 04:56:00,
2013-02-11 20:11:00,13.7,11.0,29.74,NE,38,0.0,-999.0,89,-99.99,,,0.00,weatherlink.com 1.10,2013-02-12 05:11:00,
2013-02-11 20:26:00,13.5,11.0,29.74,NE,38,0.0,-999.0,90,-99.99,,,0.00,weatherlink.com 1.10,2013-02-12 05:26:00,
2013-02-11 20:41:00,13.2,11.0,29.74,NE,38,0.0,-999.0,89,-99.99,,,0.00,weatherlink.com 1.10,2013-02-12 05:41:00,
2013-02-11 20:56:00,12.7,10.0,29.74,NE,38,0.0,-999.0,89,-99.99,,,0.00,weatherlink.com 1.10,2013-02-12 05:56:00,
2013-02-11 21:11:00,11.7,9.0,29.74,NE,38,0.0,-999.0,88,-99.99,,,0.00,weatherlink.com 1.10,2013-02-12 06:11:00,
2013-02-11 21:26:00,10.5,8.0,29.74,NE,38,0.0,-999.0,88,-99.99,,,0.00,weatherlink.com 1.10,2013-02-12 06:26:00,
2013-02-11 21:41:00,9.7,7.0,29.74,NE,38,0.0,-999.0,89,-99.99,,,0.00,weatherlink.com 1.10,2013-02-12 06:41:00,
2013-02-11 21:56:00,9.2,7.0,29.74,NE,38,0.0,-999.0,90,-99.99,,,0.00,weatherlink.com 1.10,2013-02-12 06:56:00,
2013-02-11 22:11:00,8.2,6.0,29.74,NE,38,0.0,-999.0,89,-99.99,,,0.00,weatherlink.com 1.10,2013-02-12 07:11:00,
2013-02-11 22:26:00,7.2,4.0,29.74,NE,38,0.0,-999.0,88,-99.99,,,0.00,weatherlink.com 1.10,2013-02-12 07:26:00,
2013-02-11 22:41:00,6.3,4.0,29.74,NE,38,0.0,-999.0,88,-99.99,,,0.00,weatherlink.com 1.10,2013-02-12 07:41:00,
2013-02-11 22:56:00,5.9,3.0,29.74,NE,38,0.0,-999.0,89,-99.99,,,0.00,weatherlink.com 1.10,2013-02-12 07:56:00,
2013-02-11 23:11:00,5.1,2.0,29.74,NE,38,0.0,-999.0,88,-99.99,,,0.00,weatherlink.com 1.10,2013-02-12 08:11:00,
2013-02-11 23:26:00,4.2,1.0,29.74,NE,38,0.0,-999.0,87,-99.99,,,0.00,weatherlink.com 1.10,2013-02-12 08:26:00,
2013-02-11 23:41:00,4.0,1.0,29.74,NE,38,0.0,-999.0,88,-99.99,,,0.00,weatherlink.com 1.10,2013-02-12 08:41:00,
2013-02-11 23:56:00,3.7,1.0,29.75,NE,38,0.0,-999.0,88,-99.99,,,0.00,weatherlink.com 1.10,2013-02-12 08:56:00,